Ostend, Belgium

6:05 AM CEST on August 21, 2017 (GMT +0200)
Ostend

Weather History for EBOS - August, 2013

Change the Weather History Date:

Saturday, August 17, 2013

  Actual Average Record
Temperature  
Mean Temperature 68 °F -  
Max Temperature 75 °F 66 °F 86 °F (2002)
Min Temperature 60 °F 52 °F 50 °F (1998)
Cooling Degree Days 2    
Growing Degree Days 18 (Base 50)    
Moisture  
Dew Point 57 °F    
Average Humidity 73    
Maximum Humidity 88    
Minimum Humidity 43    
Precipitation  
Precipitation 0.00 in - - ()
Sea Level Pressure  
Sea Level Pressure 29.96 in    
Wind  
Wind Speed 9 mph ()    
Max Wind Speed 20 mph    
Max Gust Speed -    
Visibility 6.7 miles    
Events Rain    
Averages and records for this station are not official NWS values.
T = Trace of Precipitation, MM = Missing Value Source: Averaged Metar Reports

Daily Weather History Graph

Daily Weather History Graph

Search for Another Location

Airport or City:

Trip Planner

Search our weather history database for the weather conditions in past years. The results will help you decide how hot, cold, wet, or windy it might be!

Date:

Astronomy

Aug. 17, 2013 Rise Set
Actual Time 6:38 AM CEST 9:05 PM CEST
Civil Twilight 6:01 AM CEST 9:42 PM CEST
Nautical Twilight 5:14 AM CEST 10:29 PM CEST
Astronomical Twilight 4:18 AM CEST 11:23 PM CEST
Moon 6:19 PM CEST (8/17) 2:11 AM CEST (8/17)
Length of Visible Light 15h 41m
Length of Day
14h 27m
Waxing Gibbous, 82% of the Moon is Illuminated
Aug 17
Waxing Gibbous
Aug 21
Full
Aug 28
Last Quarter
Sep 5
New
Sep 12
First Quarter

Hourly Weather History & Observations

Time (CEST) Temp. Dew Point Humidity Pressure Visibility Wind Dir Wind Speed Gust Speed Precip Events Conditions
12:20 AM 62.6 °F 57.2 °F 82% 30.01 in 6.2 mi SSW 5.8 mph - N/A   Mostly Cloudy
12:50 AM 62.6 °F 57.2 °F 82% 30.01 in 6.2 mi SSW 4.6 mph - N/A   Mostly Cloudy
1:20 AM 62.6 °F 57.2 °F 82% 30.01 in 6.2 mi SW 4.6 mph - N/A   Mostly Cloudy
1:50 AM 62.6 °F 57.2 °F 82% 30.01 in 6.2 mi SW 5.8 mph - N/A   Mostly Cloudy
2:00 AM 63 °F 58 °F 78% 30.03 in 19 mi SW 6.7 mph - -   Partly Cloudy
2:20 AM 62.6 °F 59.0 °F 88% 30.01 in 6.2 mi SW 6.9 mph - N/A   Mostly Cloudy
2:50 AM 64.4 °F 59.0 °F 83% 30.01 in 6.2 mi SW 6.9 mph - N/A   Mostly Cloudy
3:20 AM 64.4 °F 59.0 °F 83% 30.01 in 6.2 mi WSW 9.2 mph - N/A   Mostly Cloudy
3:50 AM 62.6 °F 57.2 °F 82% 30.01 in 6.2 mi SW 6.9 mph - N/A   Mostly Cloudy
4:20 AM 62.6 °F 57.2 °F 82% 30.01 in 6.2 mi SW 8.1 mph - N/A   Mostly Cloudy
4:50 AM 62.6 °F 57.2 °F 82% 30.01 in 6.2 mi SW 5.8 mph - N/A   Mostly Cloudy
5:00 AM 62 °F 57 °F 79% 30.01 in 9 mi SW 6.7 mph - -   Mostly Cloudy
5:20 AM 62.6 °F 57.2 °F 82% 30.01 in 6.2 mi SW 5.8 mph - N/A   Mostly Cloudy
5:50 AM 62.6 °F 57.2 °F 82% 30.01 in 6.2 mi SW 5.8 mph - N/A   Mostly Cloudy
6:20 AM 62.6 °F 57.2 °F 82% 30.01 in 5.0 mi SSW 5.8 mph - N/A   Mostly Cloudy
6:50 AM 60.8 °F 57.2 °F 88% 30.01 in 2.8 mi SSW 6.9 mph - N/A   Mostly Cloudy
7:20 AM 60.8 °F 57.2 °F 88% 30.01 in 2.8 mi SW 8.1 mph - N/A   Mostly Cloudy
7:50 AM 60.8 °F 57.2 °F 88% 30.01 in 2.8 mi SW 6.9 mph - N/A   Mostly Cloudy
8:00 AM 61 °F 57 °F 81% 30.01 in 3 mi SW 6.7 mph - -   Mist
8:20 AM 60.8 °F 57.2 °F 88% 30.01 in 5.6 mi SW 6.9 mph - N/A   Mostly Cloudy
8:50 AM 62.6 °F 57.2 °F 82% 30.01 in 6.2 mi SW 10.4 mph - N/A   Mostly Cloudy
9:20 AM 62.6 °F 57.2 °F 82% 30.01 in 6.2 mi SW 8.1 mph - N/A   Mostly Cloudy
9:50 AM 64.4 °F 57.2 °F 77% 29.98 in 6.2 mi SW 11.5 mph - N/A   Mostly Cloudy
10:20 AM 64.4 °F 57.2 °F 77% 29.98 in 6.2 mi SW 11.5 mph - N/A   Scattered Clouds
10:50 AM 68.0 °F 57.2 °F 68% 29.98 in 6.2 mi SSW 10.4 mph - N/A   Partly Cloudy
11:00 AM 67 °F 57 °F 62% 30.00 in 9 mi SSW 11.2 mph - -   Scattered Clouds
11:20 AM 69.8 °F 57.2 °F 64% 29.98 in 6.2 mi SSW 11.5 mph - N/A   Partly Cloudy
11:50 AM 69.8 °F 57.2 °F 64% 29.98 in 6.2 mi SSW 12.7 mph - N/A   Partly Cloudy
12:20 PM 71.6 °F 57.2 °F 60% 29.98 in 6.2 mi SSW 13.8 mph - N/A   Partly Cloudy
12:50 PM 69.8 °F 57.2 °F 64% 29.98 in 6.2 mi SW 13.8 mph - N/A   Scattered Clouds
1:20 PM 69.8 °F 57.2 °F 64% 29.98 in 6.2 mi SSW 15.0 mph - N/A   Scattered Clouds
1:50 PM 69.8 °F 57.2 °F 64% 29.98 in 6.2 mi SW 13.8 mph - N/A   Scattered Clouds
2:00 PM 70 °F 58 °F 56% 30.00 in 9 mi SW 13.4 mph - -   Partly Cloudy
2:20 PM 73.4 °F 57.2 °F 57% 29.98 in 6.2 mi SSW 16.1 mph - N/A   Scattered Clouds
2:50 PM 71.6 °F 55.4 °F 57% 29.98 in 6.2 mi SW 16.1 mph - N/A   Scattered Clouds
3:20 PM 73.4 °F 57.2 °F 57% 29.95 in 6.2 mi SSW 13.8 mph - N/A   Partly Cloudy
3:50 PM 73.4 °F 53.6 °F 50% 29.92 in 6.2 mi SSW 15.0 mph - N/A   Partly Cloudy
4:20 PM 75.2 °F 55.4 °F 50% 29.92 in 6.2 mi SSW 18.4 mph - N/A   Partly Cloudy
4:50 PM 73.4 °F 55.4 °F 53% 29.92 in 6.2 mi SSW 17.3 mph - N/A   Partly Cloudy
5:00 PM 73 °F 55 °F 43% 29.92 in 9 mi SSW 17.9 mph - -   Scattered Clouds
5:20 PM 69.8 °F 59.0 °F 68% 29.92 in 6.2 mi WSW 12.7 mph - N/A   Partly Cloudy
5:50 PM 68.0 °F 59.0 °F 73% 29.89 in 6.2 mi West 15.0 mph - N/A   Partly Cloudy
6:20 PM 68.0 °F 59.0 °F 73% 29.89 in 6.2 mi West 15.0 mph - N/A   Partly Cloudy
6:50 PM 66.2 °F 59.0 °F 78% 29.89 in 6.2 mi West 17.3 mph - N/A Rain Light Rain
7:20 PM 66.2 °F 59.0 °F 78% 29.89 in 6.2 mi WSW 16.1 mph - N/A Rain Light Rain
7:50 PM 66.2 °F 57.2 °F 73% 29.89 in 6.2 mi WSW 10.4 mph - N/A   Partly Cloudy
8:00 PM 65 °F 58 °F 71% 29.91 in 16 mi WSW 11.2 mph - - Rain Light Rain
8:20 PM 64.4 °F 57.2 °F 77% 29.89 in 6.2 mi WSW 13.8 mph - N/A   Partly Cloudy
8:50 PM 64.4 °F 55.4 °F 73% 29.92 in 6.2 mi WSW 19.6 mph - N/A Rain Light Rain
9:20 PM 64.4 °F 53.6 °F 68% 29.89 in 6.2 mi SW 13.8 mph - N/A   Partly Cloudy
9:50 PM 62.6 °F 53.6 °F 72% 29.89 in 6.2 mi SW 11.5 mph - N/A   Partly Cloudy
10:20 PM 62.6 °F 53.6 °F 72% 29.89 in 6.2 mi SSW 8.1 mph - N/A   Partly Cloudy
10:50 PM 62.6 °F 55.4 °F 77% 29.89 in 6.2 mi SSW 8.1 mph - N/A   Partly Cloudy
11:00 PM 62 °F 55 °F 71% 29.90 in 16 mi SSW 8.9 mph - -   Partly Cloudy
11:20 PM 62.6 °F 55.4 °F 77% 29.89 in 6.2 mi SSW 9.2 mph - N/A   Partly Cloudy
11:50 PM 62.6 °F 55.4 °F 77% 29.86 in 6.2 mi SSW 10.4 mph - N/A   Partly Cloudy